H-2A R/B (28932 NORAD) Tracking and Keplerian Element Data

This shows tracking and keplerian element data for the satellite.

Feedback or suggestion? Click here.




ElementValue
Catalog28932
NameH-2A R/B
Epoch Orbit67668
Epoch Day198.87823829
Epoch Year2018
RAAN143.406
Inclination98.2341
Eccentricity0.0090757
Argument of Perigee94.7959
Mean Anonmoly297.9016
Mean Motion14.91744552
Decay Rate3.3E-06
L11 28932U 06002B 18198.87823829 .00000330 00000-0 36587-4 0 9995
L22 28932 98.2341 143.4060 0090757 94.7959 297.9016 14.91744552676681

Live tracking and technical data element details for H-2A R/B (NORAD 28932). H-2A R/B can be tracked NOW for your location showing map with azimuth and elevation plus other details from your city location.

Track the satellite on the map from your city or location and see movement details for azimuth, elevation, latitude, longitude, range, height, and movement on the map or in text.







IsCatalogInMostPopularTable: catalog: 28932, numindb: 27
Update: records affected: 1



GetName: 28932 H-2A R/B

Hit Count: updated at: Fri, 20 Jul 2018 20:29:32 GMT